Temp
64 63 66 67 63 60 60 60 59 58 58 59 59 60 62 62 62 62 63 63 61 60 59 58 59 58 57 57 57 59 59 57
62 60 59 57 57 58 59 59 58 58 59 59 58 59 60 61 62 63 63 63 61 60 58 57 57 57 57 58 56 57 57 59
60 57 55 56 57 58 60 59 59 59 60 60 59 59 58 59 61 62 63 63 61 60 59 57 57 56 56 57 58 57 57 59
60 57 54 54 57 59 60 58 60 60 60 58 56 56 56 56 57 59 61 63 61 61 59 57 57 57 56 57 58 59 56 58
59 58 54 55 57 60 60 58 59 60 59 57 56 54 53 55 57 57 58 61 61 61 59 57 56 58 58 60 61 61 60 56
60 59 58 57 57 59 59 60 59 59 58 57 56 57 57 55 55 56 57 58 60 61 59 57 56 58 61 61 60 59 61 59
61 63 57 56 58 58 60 59 58 58 57 57 55 53 54 54 54 54 56 57 59 60 60 59 57 58 59 61 59 59 58 60
59 61 54 55 57 57 59 58 56 57 55 55 52 53 54 54 55 55 55 55 56 59 59 57 57 59 58 58 57 57 57 57
59 61 59 56 57 57 58 58 57 57 56 55 53 53 54 54 55 56 56 56 56 57 58 57 57 58 58 57 57 56 56 56
58 62 61 57 57 57 58 59 58 57 57 55 53 53 54 54 54 55 56 57 56 56 57 57 57 57 57 57 57 57 56 55
57 62 57 59 59 59 59 59 58 57 57 56 53 53 53 53 53 53 56 56 56 56 56 56 56 57 57 57 56 57 55 55
56 61 60 58 59 58 57 59 59 57 57 56 52 52 52 53 53 54 55 56 56 56 57 57 56 56 57 57 57 56 55 55
58 59 59 57 57 57 57 59 58 58 57 55 52 52 53 52 53 54 56 54 56 56 56 57 57 57 57 57 56 57 56 56
55 54 57 56 57 57 58 58 58 58 58 56 53 52 52 52 53 53 55 54 54 56 57 56 56 56 56 57 57 57 57 57
52 52 57 57 57 58 57 57 58 59 59 57 54 52 53 53 53 53 54 55 56 54 56 56 56 56 56 56 57 57 56 58
50 49 50 55 57 57 57 57 58 58 58 57 56 53 54 53 53 53 53 54 55 56 55 55 55 55 56 56 57 57 57 57
48 48 48 49 50 56 56 56 57 58 57 57 57 56 54 53 53 53 54 55 56 56 56 55 53 56 48 46 52 55 55 55
45 45 45 46 48 49 53 57 57 57 57 57 57 57 56 54 54 55 56 56 56 56 56 56 56 56 46 46 45 54 53 53
43 43 43 44 47 47 50 56 57 57 56 57 57 57 57 57 56 56 57 57 56 55 55 55 55 55 45 45 43 52 51 51
MSLP
1002.88 1002.78 1002.30 1002.30 1002.91 1003.50 1004.33 1004.96 1005.65 1006.68 1007.52 1008.29 1008.85 1009.16 1009.40 1009.49 1009.80 1009.92 1010.22 1010.72 1011.27 1011.85 1012.42 1012.86 1012.98 1013.61 1014.61 1016.08 1017.06 1017.97 1018.53 1019.36
1001.91 1001.99 1001.88 1002.24 1002.87 1003.27 1003.65 1004.39 1005.21 1006.17 1007.12 1007.86 1008.42 1008.70 1009.12 1009.27 1009.38 1009.48 1009.85 1010.40 1010.98 1011.36 1012.33 1012.98 1013.19 1013.36 1014.25 1015.86 1017.02 1017.66 1018.80 1019.33
1001.81 1001.79 1001.98 1002.14 1002.57 1003.12 1003.58 1003.96 1004.73 1005.60 1006.41 1007.17 1007.83 1008.37 1008.95 1009.01 1008.95 1009.19 1009.44 1009.97 1010.54 1011.22 1011.92 1012.62 1012.86 1013.92 1014.97 1015.64 1016.48 1017.63 1018.13 1018.69
1001.54 1001.64 1001.88 1002.17 1002.07 1002.58 1002.79 1003.55 1004.05 1005.06 1005.88 1006.91 1007.88 1008.49 1008.96 1009.01 1009.04 1009.20 1009.31 1009.60 1010.24 1010.68 1011.40 1012.28 1013.03 1013.36 1014.51 1015.43 1016.18 1016.60 1017.37 1018.44
1001.40 1001.06 1001.29 1001.37 1001.39 1002.30 1002.65 1003.75 1003.94 1004.67 1005.36 1006.44 1007.24 1007.75 1008.22 1008.50 1008.81 1009.13 1009.30 1009.41 1009.79 1010.23 1011.33 1011.93 1012.74 1013.48 1014.29 1015.19 1015.77 1016.08 1016.72 1017.76
1001.00 1000.65 1000.25 1000.65 1001.44 1001.94 1002.47 1003.35 1004.48 1004.56 1005.09 1005.94 1006.71 1007.40 1007.79 1008.34 1008.84 1009.11 1009.21 1009.31 1009.67 1009.75 1010.67 1011.56 1012.55 1013.24 1013.83 1014.43 1015.24 1015.73 1016.16 1016.87
1001.10 1000.18 1000.10 1000.42 1000.99 1001.45 1002.13 1002.94 1003.96 1004.79 1005.19 1005.80 1006.37 1006.99 1007.48 1008.12 1008.57 1008.87 1008.96 1009.27 1009.56 1009.76 1010.37 1010.87 1011.98 1012.74 1013.56 1013.91 1014.79 1015.48 1015.92 1016.34
1001.16 1000.27 1000.24 1000.24 1000.35 1000.65 1001.52 1002.45 1003.28 1004.35 1005.13 1005.71 1006.18 1006.58 1006.90 1007.53 1008.17 1008.48 1008.74 1009.13 1009.39 1009.63 1009.99 1010.74 1011.42 1012.14 1012.84 1013.70 1014.35 1015.17 1015.79 1016.33
1000.80 999.95 999.47 999.60 999.81 1000.00 1000.73 1001.66 1002.67 1003.57 1004.54 1005.41 1005.99 1006.27 1006.63 1007.20 1007.78 1008.11 1008.47 1008.76 1009.06 1009.41 1009.73 1010.48 1011.26 1011.88 1012.35 1013.15 1014.44 1014.78 1015.42 1016.43
1000.56 999.17 998.20 998.44 999.03 999.37 999.80 1001.05 1002.18 1003.03 1003.95 1005.11 1005.69 1006.11 1006.41 1006.88 1007.41 1007.85 1008.29 1008.58 1009.05 1009.41 1009.56 1010.11 1010.70 1011.62 1012.56 1013.32 1013.94 1014.94 1015.49 1016.14
1000.35 999.15 998.16 998.30 998.88 999.78 1000.58 1000.97 1001.61 1002.60 1003.59 1004.73 1005.31 1005.81 1006.25 1006.70 1007.24 1007.69 1008.12 1008.55 1008.97 1009.37 1009.62 1010.09 1010.66 1011.18 1011.97 1012.81 1014.09 1014.53 1015.10 1016.29
1000.37 998.96 998.14 998.10 998.53 999.41 1000.06 1000.84 1001.52 1002.20 1003.11 1004.34 1005.01 1005.47 1006.04 1006.46 1007.08 1007.49 1007.76 1008.38 1008.92 1009.21 1009.51 1010.03 1010.76 1011.29 1011.84 1012.55 1013.15 1014.10 1015.05 1016.09
1000.39 999.27 997.60 997.67 998.24 998.94 999.75 1000.45 1001.33 1002.10 1002.83 1003.91 1004.54 1005.06 1005.64 1006.13 1006.84 1007.35 1007.62 1007.88 1008.63 1009.13 1009.52 1009.95 1010.53 1011.10 1011.64 1012.00 1012.96 1013.72 1014.41 1015.38
1000.32 998.23 997.16 997.65 998.18 999.05 999.89 1000.47 1001.34 1002.30 1003.03 1003.71 1004.50 1005.13 1005.51 1005.96 1006.53 1007.17 1007.55 1007.90 1008.32 1008.97 1009.45 1009.94 1010.54 1011.02 1011.57 1012.20 1012.81 1013.36 1014.09 1014.66
1001.16 999.69 998.00 998.28 998.97 999.58 1000.23 1000.64 1001.10 1001.89 1002.97 1003.64 1004.18 1005.01 1005.48 1006.10 1006.49 1006.96 1007.42 1007.83 1008.19 1008.74 1009.27 1009.82 1010.35 1010.93 1011.48 1011.99 1012.58 1013.14 1013.65 1014.09
1002.36 1000.86 1000.45 999.70 999.35 999.72 1000.04 1000.25 1000.96 1001.54 1002.49 1003.49 1004.08 1004.63 1005.06 1005.69 1006.31 1006.75 1007.22 1007.72 1008.09 1008.42 1008.96 1009.55 1010.15 1010.81 1011.27 1011.73 1012.14 1012.59 1013.01 1013.41
1003.86 1003.05 1002.13 1001.51 1001.40 1000.33 1000.08 1000.40 1000.83 1001.73 1002.44 1003.36 1003.98 1004.59 1005.20 1005.53 1005.96 1006.41 1006.85 1007.25 1007.74 1008.17 1008.60 1009.07 1009.69 1010.22 1010.72 1011.25 1011.70 1012.14 1012.52 1012.93
1004.90 1004.36 1003.16 1002.84 1002.51 1001.76 1000.91 1000.73 1001.03 1001.65 1002.26 1002.91 1003.50 1004.00 1004.50 1005.04 1005.46 1005.94 1006.32 1006.64 1007.03 1007.49 1007.95 1008.42 1008.89 1009.39 1009.88 1010.45 1011.04 1011.54 1011.84 1012.03
1005.83 1006.02 1005.59 1004.76 1003.80 1002.61 1002.33 1001.16 1001.29 1001.82 1002.37 1002.93 1003.38 1003.70 1003.98 1004.39 1004.89 1005.26 1005.52 1005.96 1006.30 1006.78 1007.26 1007.73 1008.19 1008.65 1009.15 1009.69 1010.21 1010.76 1011.04 1011.23
Wind_Speed
8 11 14 14 13 13 14 13 13 10 6 5 3 4 4 5 6 8 10 8 9 7 5 7 9 12 12 11 11 7 9 9
8 7 7 7 8 13 16 16 13 11 8 7 4 5 6 6 7 9 10 8 11 10 7 7 8 10 11 13 10 13 7 9
7 6 4 9 12 12 15 16 15 11 9 6 3 4 2 2 2 5 9 9 11 11 12 10 11 8 10 12 13 8 6 10
11 7 9 7 12 16 18 15 17 13 11 7 3 4 1 2 2 2 5 10 10 13 13 10 9 11 10 11 13 12 10 8
11 8 9 13 13 13 14 13 15 13 13 11 11 6 5 3 3 2 3 5 9 13 13 13 12 11 11 13 12 11 13 11
14 11 16 9 10 12 12 13 12 13 13 12 10 10 4 3 3 5 5 3 4 15 15 15 15 11 13 15 13 10 12 10
15 14 6 9 11 13 13 14 13 11 14 14 13 11 9 6 5 5 4 3 5 7 11 15 15 13 11 13 11 10 9 10
17 16 7 11 15 16 15 16 14 13 13 11 9 9 9 9 8 6 7 4 3 7 10 11 13 15 13 10 11 9 9 10
19 18 12 15 17 18 18 18 17 15 13 11 9 8 6 6 8 6 5 5 5 5 11 13 13 12 13 12 8 6 7 6
23 23 13 16 17 19 18 20 15 15 13 11 10 9 9 8 7 6 5 6 5 6 9 13 15 16 16 14 10 12 8 5
24 22 6 8 11 13 13 19 16 15 13 12 9 9 8 7 7 7 8 7 7 8 9 10 12 14 17 17 13 11 9 6
23 18 9 9 11 13 13 18 17 15 13 12 11 9 9 8 8 8 9 10 8 8 11 13 13 13 16 17 13 13 14 12
23 19 13 12 13 13 14 16 15 12 12 11 10 10 9 9 8 8 9 10 10 9 8 10 13 14 13 16 17 16 16 13
20 22 8 11 11 11 16 11 11 10 10 10 9 9 10 10 9 7 9 9 10 9 10 10 9 10 11 11 12 12 14 13
16 19 3 6 7 10 10 10 10 10 10 10 10 9 9 8 7 8 8 9 11 10 11 11 11 12 12 12 13 13 12 13
17 16 15 7 6 9 10 11 10 10 10 9 9 8 9 9 8 8 7 8 9 11 10 10 11 10 10 14 14 14 13 15
15 15 17 17 15 3 9 10 10 10 8 8 7 9 7 8 9 9 9 9 9 11 12 12 11 10 13 14 12 11 12 13
15 17 16 17 14 13 8 7 9 10 9 8 8 8 11 10 10 10 11 11 10 11 12 12 13 13 16 18 17 11 11 13
16 14 13 13 14 14 12 3 8 7 7 7 8 9 10 11 12 13 12 11 12 11 11 12 12 10 15 17 19 15 11 12
Wind_Direction
239 238 244 218 200 182 173 175 169 157 146 138 153 173 191 192 191 189 172 170 158 152 144 147 165 159 141 141 138 145 149 147
278 272 240 157 169 170 174 171 166 156 165 170 178 193 202 198 192 179 175 176 161 154 146 137 148 142 130 141 145 145 136 140
286 264 199 184 179 184 177 177 166 167 170 168 153 158 194 197 154 168 175 177 167 159 159 163 143 129 134 147 154 159 134 160
287 242 210 192 189 193 184 177 165 166 159 140 105 90 115 167 161 173 176 181 179 167 162 158 154 153 156 164 168 172 157 175
272 251 211 205 203 188 176 172 166 163 155 164 180 190 174 178 154 150 159 168 179 172 161 150 161 163 172 184 179 175 160 167
314 262 230 201 179 178 164 162 172 165 169 176 181 194 182 135 152 176 177 170 196 173 167 164 170 178 184 177 178 172 171 162
321 314 205 182 171 161 170 165 171 175 180 180 180 177 160 159 161 172 161 165 180 178 183 171 171 179 185 176 167 171 161 163
323 330 220 184 183 172 174 172 171 176 177 175 174 170 159 166 183 177 158 163 179 181 164 177 179 173 161 149 151 153 158 162
327 318 259 204 194 178 176 176 173 170 171 176 177 167 162 168 179 171 164 163 158 168 171 165 176 181 166 152 163 135 121 158
326 322 287 203 194 187 177 181 176 170 170 182 176 168 165 170 166 157 150 137 143 152 163 171 166 168 173 170 168 178 140 125
323 322 264 196 178 179 188 187 175 167 165 186 171 168 160 152 151 157 148 138 143 153 147 147 163 167 168 164 170 155 128 169
313 319 261 179 173 178 184 187 180 169 165 181 172 165 164 155 166 169 153 147 149 154 158 153 159 160 168 169 158 157 172 191
305 311 259 181 177 176 185 185 179 172 163 172 173 166 166 162 169 177 166 150 160 158 145 162 166 169 167 166 171 179 182 194
320 331 192 176 175 183 188 165 168 167 168 168 169 174 173 174 169 169 173 160 157 164 167 165 162 173 173 180 186 187 200 204
337 348 85 130 171 180 170 158 161 165 181 179 173 176 175 181 168 171 173 176 169 167 178 182 181 177 181 187 192 199 206 214
348 3 14 18 147 159 155 154 164 164 177 180 183 172 170 171 172 175 173 176 184 182 177 184 184 188 194 197 200 205 210 217
357 8 14 11 5 313 157 161 163 167 172 177 176 170 173 176 179 176 180 184 186 188 193 187 186 195 193 196 198 205 210 217
5 358 8 7 3 355 4 163 152 169 174 179 183 181 185 185 182 183 191 194 193 195 198 201 201 199 191 193 197 204 206 213
7 2 2 0 357 12 353 351 172 161 168 173 181 193 196 195 191 200 196 196 196 198 200 204 211 208 194 197 199 209 211 212